Showing default

COSMOS 2527 (GLONASS), 43508

Orbit data source: Space-Track

COSMOS 2527 (GLONASS), 43508 is a Commonwealth of Independent States-origin payload satellite in MEO that was launched on Sat, 16 Jun 2018 UTC via a SOYUZ-2-1B launch vehicle from the Plesetsk Missile And Space Complex (PKMTR). Payload-class satellites include a variety of spacecraft equipped with specific instruments for various scientific and technological missions. These include communications satellites like Starlink; space stations such as the ISS; scientific satellites like the Hubble; Earth observation satellites from companies like Planet Labs, Umbra, and HawkEye 360; GPS; miniature CubeSats for education and research; and military/defense satellites.

Loading next visibility...
Identifier
43508, 2018-053A
Orbit
MEO
Country
Flag of CISCIS
Related business
Manufacturer
Resehetnev ISS
Mission
Operational Defense Navigation
Bus & Motor
URAGAN, Unknown motor
Mass
1,450 kg wet, ~1,200 kg dry
Launch date (UTC)
2018-06-16 (8 years ago)
Launch vehicle
SOYUZ-2-1B
Launch site
Plesetsk Missile And Space Complex (PKMTR)
Object type
Payload
Rocket body
Debris
Shape & HBR
Cyl + 1 Ant + 2 Pan, 3.9 m
Radar Cross Section
8.467 m², Large (>1 m²)

Expand to show TLE details & history
Last TLE update: 3 days ago

TLE from 3 days ago
0 COSMOS 2527 (GLONASS)
1 43508U 18053A   26170.90026155 -.00000034  00000-0  00000-0 0  9999
2 43508  65.5791  73.8170 0006906 238.7549 121.2143  2.13102048 62339
Epoch: 2026-06-19T21:36Z
TLE epoch observation values (Epoch: 2026-06-19T21:36:22.597Z)
Latitude
0.00003°
Longitude
-158.3879°
Altitude
19,139.614 km
Speed
3.952 km/s
True Right ascension
04h 55m 18s
True Declination
0° 00' 00"
Sunlit
Object was in daylight at epoch
Visualization orbit readout
Latitude
Unknown
Longitude
Unknown
Altitude
Unknown
Speed
Unknown
Apparent Right ascension
Unknown
Apparent Declination
Unknown
Sunlit
N/A
Visualization observer readout
Local Sidereal Time
21:37:53
Azimuth
Unknown
Elevation
Unknown
Doppler factor
Unknown
Orbital elements
Apogee altitude
19,147.094 km
Perigee altitude
19,111.863 km
Semi-major axis
25,507.616 km
Eccentricity
0.00069
Inclination
65.5791°
RAAN
73.817°
Arg. of periapsis
238.7549°
True anomaly
121.28195°
Mean anomaly
121.2143°
Eccentric anomaly
121.24813°
Mean motion
0.53277 °/min
Orbital period
675.72 mins
BSTAR
0
Loading maneuver chart data...
Computing Atmospheric mass density...
Loading historical data...
Loading historical data...
Loading historical data...
Loading historical data...
Loading historical data...
Loading historical data...
Loading historical data...
Other satellites on launch #53 in the year 2018 (2018-06-16 UTC)

Documentation

Showing up to 5 results
|